Earth resources
NORAD ID: 23940
Int'l Code: 1996-037A
Perigee: 700.8 km
Apogee: 743.6 km
Inclination: 97.9 °
Period: 99.1 minutes
Semi major axis: 7093 km
Launch date: July 2, 1996
Source: United States (US)
Two Line Element Set (TLE):
1 23940U 96037A 13165.57595506 .00000199 00000-0 57927-4 0 2762
2 23940 097.9240 343.3359 0030143 150.3957 250.2699 14.53241909901148
Source:
NASA's NSSDC Master Catalog entry for TOMS EP